Time,TemperatureF,DewpointF,PressureIn,WindDirection,WindDirectionDegrees,WindSpeedMPH,WindSpeedGustMPH,Humidity,HourlyPrecipIn,Conditions,Clouds,dailyrainin,SolarRadiationWatts/m^2,SoftwareType,DateUTC
2013-08-15 07:42:00,48.0,45.0,-100.00,WNW,283,2.0,4.0,91,-99.99,,,0.00,13.000000,,2013-08-15 13:42:00,
2013-08-15 10:14:00,75.0,49.0,-100.00,NW,318,2.0,5.0,40,0.00,,,-99.99,505.000000,,2013-08-15 16:14:00,
2013-08-15 10:55:00,75.0,49.0,-100.00,NW,318,2.0,5.0,40,0.00,,,-99.99,505.000000,,2013-08-15 16:55:00,
2013-08-15 11:06:00,75.0,49.0,-100.00,NW,318,2.0,5.0,40,0.00,,,-99.99,505.000000,,2013-08-15 17:06:00,
2013-08-15 11:14:00,80.0,47.0,-100.00,ENE,59,3.0,5.0,31,0.00,,,0.00,692.000000,,2013-08-15 17:14:00,
2013-08-15 11:55:00,80.0,47.0,-100.00,ENE,59,3.0,5.0,31,0.00,,,0.00,692.000000,,2013-08-15 17:55:00,
2013-08-15 12:00:00,-999.0,-99.9,-100.00,ENE,59,3.0,5.0,-999,-99.99,,,-99.99,692.000000,,2013-08-15 18:00:00,
2013-08-15 12:10:00,80.0,47.0,-100.00,ENE,59,3.0,5.0,31,0.00,,,0.00,692.000000,,2013-08-15 18:10:00,
2013-08-15 12:14:00,86.0,41.0,-100.00,North,350,4.0,6.0,21,0.00,,,0.00,841.000000,,2013-08-15 18:14:00,
2013-08-15 12:40:00,-999.0,-99.9,-100.00,North,350,4.0,6.0,21,0.00,,,0.00,841.000000,,2013-08-15 18:40:00,
2013-08-15 12:49:00,86.0,41.0,-100.00,North,350,4.0,6.0,21,0.00,,,0.00,841.000000,,2013-08-15 18:49:00,
2013-08-15 13:06:00,-999.0,-99.9,-100.00,North,350,4.0,6.0,-999,0.00,,,0.00,841.000000,,2013-08-15 19:06:00,
2013-08-15 13:49:00,90.0,42.0,-100.00,NE,56,4.0,7.0,19,0.00,,,0.00,947.000000,,2013-08-15 19:49:00,
2013-08-15 14:09:00,90.0,42.0,-100.00,NE,56,4.0,7.0,19,0.00,,,0.00,947.000000,,2013-08-15 20:09:00,
2013-08-15 14:14:00,95.0,38.0,-100.00,NW,319,3.0,6.0,14,0.00,,,0.00,984.000000,,2013-08-15 20:14:00,
2013-08-15 14:45:00,95.0,38.0,-100.00,NW,319,3.0,6.0,14,0.00,,,0.00,984.000000,,2013-08-15 20:45:00,
2013-08-15 14:57:00,95.0,38.0,-100.00,NW,319,3.0,6.0,14,0.00,,,0.00,984.000000,,2013-08-15 20:57:00,
2013-08-15 15:05:00,95.0,38.0,-100.00,NW,319,3.0,6.0,14,0.00,,,0.00,984.000000,,2013-08-15 21:05:00,
2013-08-15 15:14:00,98.0,44.0,-100.00,NNE,30,3.0,7.0,16,0.00,,,0.00,969.000000,,2013-08-15 21:14:00,
2013-08-15 15:49:00,98.0,44.0,-100.00,NNE,30,3.0,7.0,16,0.00,,,0.00,969.000000,,2013-08-15 21:49:00,
2013-08-15 15:57:00,98.0,44.0,-100.00,NNE,30,3.0,7.0,16,0.00,,,0.00,969.000000,,2013-08-15 21:57:00,
2013-08-15 16:09:00,98.0,44.0,-100.00,NNE,30,3.0,7.0,16,0.00,,,0.00,969.000000,,2013-08-15 22:09:00,
2013-08-15 17:48:00,100.0,31.0,-100.00,WNW,295,4.0,17.0,9,0.00,,,0.00,705.000000,,2013-08-15 23:48:00,
2013-08-15 17:55:00,100.0,31.0,-100.00,WNW,295,4.0,17.0,9,0.00,,,0.00,705.000000,,2013-08-15 23:55:00,
2013-08-15 18:08:00,100.0,31.0,-100.00,WNW,295,4.0,17.0,9,0.00,,,0.00,705.000000,,2013-08-16 00:08:00,
2013-08-15 19:43:00,-999.0,-99.9,-100.00,WNW,301,2.0,-999.0,-999,-99.99,,,-99.99,,,2013-08-16 01:43:00,